| time (UTC) | temp C | wind direction | speed KPH | gust KPH | rain 1hr cm | rain 24hr cm | rain mn cm | humidity % | barometer mb |
| 20260906035023 | 16 | 22 | 0.0 | 4.8 | 0.00 | 0.00 | 0.00 | 100 | |
| 20260906033523 | 16 | 84 | 0.0 | 9.7 | 0.00 | 0.00 | 0.00 | 100 | |
| 20260906032023 | 16 | 184 | 3.2 | 11.3 | 0.00 | 0.00 | 0.00 | 100 | |
| 20260906030523 | 16 | 330 | 1.6 | 1.6 | 0.00 | 0.00 | 0.00 | 100 | |
| 20260906025105 | 16 | 156 | 1.6 | 11.3 | 0.00 | 0.00 | 0.00 | 100 | |
| 20260906025023 | 16 | 156 | 1.6 | 11.3 | 0.00 | 0.00 | 0.00 | 100 | |
| 20260906023523 | 17 | 123 | 8.0 | 12.9 | 0.00 | 0.00 | 0.00 | 100 | |
| 20260906022023 | 17 | 126 | 4.8 | 14.5 | 0.00 | 0.00 | 0.00 | 100 | |
| 20260906020523 | 17 | 142 | 4.8 | 11.3 | 0.00 | 0.00 | 0.00 | 100 | |
| 20260906015023 | 17 | 119 | 3.2 | 6.4 | 0.00 | 0.00 | 0.00 | 100 | |
| 20260906013523 | 17 | 165 | 4.8 | 11.3 | 0.00 | 0.00 | 0.00 | 100 | |
| 20260906012023 | 17 | 172 | 3.2 | 6.4 | 0.00 | 0.00 | 0.00 | 100 | |
| 20260906010523 | 17 | 115 | 0.0 | 4.8 | 0.00 | 0.00 | 0.00 | 100 | |
| 20260906005023 | 17 | 71 | 1.6 | 6.4 | 0.00 | 0.00 | 0.00 | 100 | |
| 20260906003523 | 17 | 175 | 0.0 | 6.4 | 0.00 | 0.00 | 0.00 | 100 | |
| 20260906002023 | 17 | 118 | 1.6 | 8.0 | 0.00 | 0.00 | 0.00 | 100 | |
| 20260906000524 | 17 | 125 | 1.6 | 6.4 | 0.00 | 0.00 | 0.00 | 100 | |
| 20260905235023 | 17 | 67 | 3.2 | 3.2 | 0.00 | 0.00 | 0.00 | 100 | |
| 20260905233523 | 17 | 109 | 1.6 | 8.0 | 0.00 | 0.00 | 0.00 | 100 | |
| 20260905232023 | 18 | 116 | 0.0 | 3.2 | 0.00 | 0.00 | 0.00 | 100 | |
| 20260905230523 | 18 | 57 | 0.0 | 0.0 | 0.00 | 0.00 | 0.00 | 100 | |
| 20260905225023 | 18 | 133 | 0.0 | 3.2 | 0.00 | 0.00 | 0.00 | 100 | |
| 20260905223523 | 18 | 80 | 0.0 | 0.0 | 0.00 | 0.00 | 0.00 | 100 | |
| 20260905222023 | 18 | 80 | 0.0 | 3.2 | 0.00 | 0.00 | 0.00 | 100 | |
| 20260905220523 | 18 | 61 | 1.6 | 6.4 | 0.00 | 0.00 | 0.00 | 100 | |
| 20260905215024 | 19 | 81 | 3.2 | 8.0 | 0.00 | 0.00 | 0.00 | 100 | |
| 20260905213524 | 19 | 45 | 0.0 | 0.0 | 0.00 | 0.00 | 0.00 | 100 | |
| 20260905212024 | 19 | 77 | 1.6 | 4.8 | 0.00 | 0.00 | 0.00 | 100 | |
| 20260905210524 | 20 | 111 | 0.0 | 0.0 | 0.00 | 0.00 | 0.00 | 100 | |
| 20260905205024 | 20 | 90 | 4.8 | 8.0 | 0.00 | 0.00 | 0.00 | 100 | |
| 20260905203524 | 19 | 80 | 0.0 | 1.6 | 0.00 | 0.00 | 0.00 | 100 | |
| 20260905202024 | 19 | 153 | 0.0 | 4.8 | 0.00 | 0.00 | 0.00 | 100 | |
| 20260905200524 | 19 | 118 | 0.0 | 3.2 | 0.00 | 0.00 | 0.00 | 100 | |
| 20260905195024 | 19 | 7 | 0.0 | 1.6 | 0.00 | 0.00 | 0.00 | 100 | |
| 20260905193524 | 19 | 90 | 0.0 | 0.0 | 0.00 | 0.00 | 0.00 | 100 | |
| 20260905192024 | 20 | 102 | 0.0 | 4.8 | 0.00 | 0.00 | 0.00 | 100 | |
| 20260905190524 | 20 | 60 | 4.8 | 6.4 | 0.00 | 0.00 | 0.00 | 100 | |
| 20260905185024 | 20 | 52 | 0.0 | 1.6 | 0.00 | 0.00 | 0.00 | 100 | |
| 20260905183524 | 19 | 68 | 0.0 | 3.2 | 0.00 | 0.00 | 0.00 | 100 | |
| 20260905182024 | 20 | 88 | 0.0 | 0.0 | 0.00 | 0.00 | 0.00 | 100 | |
| 20260905180524 | 20 | 88 | 0.0 | 0.0 | 0.00 | 0.00 | 0.00 | 100 | |
| 20260905175024 | 20 | 88 | 0.0 | 3.2 | 0.00 | 0.00 | 0.00 | 100 | |
| 20260905173648 | 20 | 84 | 3.2 | 3.2 | 0.00 | 0.00 | 0.00 | 100 | |
| 20260905173524 | 20 | 84 | 3.2 | 3.2 | 0.00 | 0.00 | 0.00 | 100 | |
| 20260905172024 | 20 | 77 | 1.6 | 4.8 | 0.00 | 0.00 | 0.00 | 100 | |
| 20260905170524 | 20 | 112 | 6.4 | 9.7 | 0.00 | 0.00 | 0.00 | 100 | |
| 20260905165024 | 21 | 75 | 11.3 | 14.5 | 0.00 | 0.00 | 0.00 | 100 | |
| 20260905163524 | 21 | 73 | 11.3 | 14.5 | 0.00 | 0.00 | 0.00 | 100 | |
| 20260905162024 | 21 | 57 | 4.8 | 11.3 | 0.00 | 0.00 | 0.00 | 100 | |
| 20260905160525 | 21 | 80 | 8.0 | 16.1 | 0.00 | 0.00 | 0.00 | 100 | |
| 20260905155024 | 21 | 74 | 8.0 | 17.7 | 0.00 | 0.00 | 0.00 | 100 | |
| 20260905153524 | 21 | 85 | 9.7 | 22.5 | 0.00 | 0.00 | 0.00 | 100 | |
| 20260905152024 | 21 | 84 | 9.7 | 16.1 | 0.00 | 0.00 | 0.00 | 100 | |
| 20260905150524 | 21 | 82 | 12.9 | 20.9 | 0.00 | 0.00 | 0.00 | 100 | |
| 20260905145024 | 21 | 61 | 11.3 | 20.9 | 0.00 | 0.00 | 0.00 | 100 | |
| 20260905143524 | 22 | 70 | 12.9 | 19.3 | 0.00 | 0.00 | 0.00 | 100 | |
| 20260905142024 | 22 | 39 | 8.0 | 20.9 | 0.00 | 0.00 | 0.00 | 100 | |
| 20260905140607 | 22 | 37 | 22.5 | 24.1 | 0.00 | 0.00 | 0.00 | 100 | |
| 20260905140524 | 22 | 37 | 22.5 | 24.1 | 0.00 | 0.00 | 0.00 | 100 | |
| 20260905135138 | 22 | 81 | 16.1 | 19.3 | 0.00 | 0.00 | 0.00 | 100 | |
| 20260905135024 | 22 | 81 | 16.1 | 19.3 | 0.00 | 0.00 | 0.00 | 100 | |
| 20260905133559 | 23 | 25 | 11.3 | 20.9 | 0.00 | 0.00 | 0.00 | 100 | |
| 20260905133524 | 23 | 25 | 11.3 | 20.9 | 0.00 | 0.00 | 0.00 | 100 | |
| 20260905132024 | 23 | 7 | 14.5 | 19.3 | 0.00 | 0.00 | 0.00 | 100 | |
| 20260905130524 | 23 | 80 | 8.0 | 22.5 | 0.00 | 0.00 | 0.00 | 100 | |
| 20260905125024 | 23 | 56 | 9.7 | 20.9 | 0.00 | 0.00 | 0.00 | 100 | |
| 20260905123524 | 24 | 60 | 9.7 | 19.3 | 0.00 | 0.00 | 0.00 | 100 | |
| 20260905122025 | 23 | 73 | 9.7 | 20.9 | 0.00 | 0.00 | 0.00 | 100 | |
| 20260905120525 | 22 | 71 | 12.9 | 24.1 | 0.00 | 0.00 | 0.00 | 100 | |
| 20260905115025 | 22 | 146 | 12.9 | 20.9 | 0.00 | 0.00 | 0.00 | 100 | |
| 20260905113525 | 21 | 73 | 12.9 | 24.1 | 0.00 | 0.00 | 0.00 | 100 | |
| 20260905112025 | 21 | 75 | 16.1 | 24.1 | 0.00 | 0.00 | 0.00 | 100 | |
| 20260905110525 | 22 | 68 | 17.7 | 24.1 | 0.00 | 0.00 | 0.00 | 100 | |
| 20260905105025 | 22 | 64 | 12.9 | 20.9 | 0.00 | 0.00 | 0.00 | 100 | |
| 20260905103525 | 23 | 12 | 12.9 | 20.9 | 0.00 | 0.00 | 0.00 | 100 | |
| 20260905102025 | 23 | 40 | 16.1 | 27.4 | 0.00 | 0.00 | 0.00 | 100 | |
| 20260905100525 | 25 | 75 | 8.0 | 25.7 | 0.00 | 0.00 | 0.00 | 100 | |
| 20260905095025 | 25 | 57 | 8.0 | 11.3 | 0.00 | 0.00 | 0.00 | 100 | |
| 20260905093525 | 26 | 227 | 3.2 | 14.5 | 0.00 | 0.00 | 0.00 | 100 | |
| 20260905092025 | 26 | 327 | 4.8 | 14.5 | 0.00 | 0.00 | 0.00 | 100 | |
| 20260905090606 | 26 | 306 | 0.0 | 16.1 | 0.00 | 0.00 | 0.00 | 100 | |
| 20260905090525 | 26 | 306 | 0.0 | 16.1 | 0.00 | 0.00 | 0.00 | 100 | |
| 20260905085025 | 25 | 277 | 9.7 | 17.7 | 0.00 | 0.00 | 0.00 | 100 | |
| 20260905083525 | 25 | 255 | 8.0 | 16.1 | 0.00 | 0.00 | 0.00 | 100 | |
| 20260905082025 | 25 | 320 | 14.5 | 14.5 | 0.00 | 0.00 | 0.00 | 100 | |
| 20260905080525 | 25 | 281 | 11.3 | 22.5 | 0.00 | 0.00 | 0.00 | 100 | |
| 20260905075025 | 25 | 330 | 6.4 | 14.5 | 0.00 | 0.00 | 0.00 | 100 | |
| 20260905073525 | 24 | 296 | 9.7 | 19.3 | 0.00 | 0.00 | 0.00 | 100 | |
| 20260905072025 | 23 | 326 | 8.0 | 24.1 | 0.00 | 0.00 | 0.00 | 100 | |
| 20260905070525 | 23 | 270 | 4.8 | 24.1 | 0.00 | 0.00 | 0.00 | 100 | |
| 20260905065025 | 22 | 307 | 17.7 | 25.7 | 0.00 | 0.00 | 0.00 | 100 | |
| 20260905063525 | 22 | 303 | 11.3 | 25.7 | 0.00 | 0.00 | 0.00 | 100 | |
| 20260905062025 | 22 | 315 | 20.9 | 24.1 | 0.00 | 0.00 | 0.00 | 100 | |
| 20260905060525 | 22 | 288 | 8.0 | 20.9 | 0.00 | 0.00 | 0.00 | 100 | |
| 20260905055025 | 22 | 251 | 8.0 | 25.7 | 0.00 | 0.00 | 0.00 | 100 | |
| 20260905053525 | 21 | 281 | 17.7 | 25.7 | 0.00 | 0.00 | 0.00 | 100 | |
| 20260905052025 | 21 | 281 | 14.5 | 25.7 | 0.00 | 0.00 | 0.00 | 100 | |
| 20260905050525 | 21 | 284 | 8.0 | 22.5 | 0.00 | 0.00 | 0.00 | 100 | |
| 20260905045025 | 21 | 347 | 14.5 | 29.0 | 0.00 | 0.00 | 0.00 | 100 | |
| 20260905043525 | 21 | 268 | 14.5 | 20.9 | 0.00 | 0.00 | 0.00 | 100 | |
| 20260905042026 | 21 | 303 | 17.7 | 29.0 | 0.00 | 0.00 | 0.00 | 100 | |
| 20260905040526 | 20 | 250 | 8.0 | 14.5 | 0.00 | 0.00 | 0.00 | 100 |